Details From EGPH - Edinburgh
To EGPF - Glasgow
Flight Number -
Tags Generated
Created
Modified
Stats Distance 37 nm / 68 km
Max Altitude 0 ft / 0 m
Waypoints 2
Social Downloads 1
Likes 0
Share VATSIM

Download

Looking for another format? Having issues loading an existing format? Contact us
Advertisement - Login to hide

Notes

Generated

Route

EGPH EGPF

ID Type Via Altitude Latitude Longitude Leg Dist Tot Dist Heading (true) Name
O EGPH APT - 0 ft / 0 m 55.94677˚ -3.35601˚ - 0 nm - Edinburgh
O EGPF APT - 0 ft / 0 m 55.87222˚ -4.44472˚ 36 nm 36 nm 263° / 263° -

Altitude Profile

Advertisement - Login to hide

EGPH

Details ICAO EGPH (EDI)
Name Edinburgh
Region United Kingdom
Timezone Europe/London (UTC+0.0)
Stats Elevation 135 ft / 41 m (AMSL)
Location 55.948685° -3.359718°
Runways 2
Magnetic Variation 2.299° W

METAR

EGPH 151020Z VRB03KT 9999 FEW030 04/00 Q1004

Decode

TAF

TAF EGPH 150456Z 1506/1606 27007KT 9999 FEW015 BKN025 PROB40 1506/1512 34010KT PROB40 TEMPO 1506/1508 3000 SHRASN BKN012 BECMG 1508/1510 CAVOK

Decode

Departure Runways

ID Width Length Bearing (true) Bearing (mag) Surface Threshold Offset Overrun Length
06 144 ft / 44 m 8,366 ft / 2,550 m 58.80° 61.10° Asphalt 705 ft / 215 m 200 ft / 61 m
12 151 ft / 46 m 5,878 ft / 1,792 m 118.67° 120.97° Asphalt 0 ft / 0 m 0 ft / 0 m
24 144 ft / 44 m 8,366 ft / 2,550 m 238.83° 241.13° Asphalt 679 ft / 207 m 207 ft / 63 m
30 151 ft / 46 m 5,878 ft / 1,792 m 298.69° 300.99° Asphalt 194 ft / 59 m 253 ft / 77 m

EGPF

Details ICAO EGPF (GLA)
Name Glasgow
Region United Kingdom
Timezone Europe/London (UTC+0.0)
Stats Elevation 26 ft / 8 m (AMSL)
Location 55.871728° -4.433648°
Runways 1
Magnetic Variation 2.731° W

METAR

EGPF 151020Z AUTO VRB03KT 9999 NCD 05/M01 Q1006

Decode

TAF

TAF EGPF 150457Z 1506/1606 30009KT 9999 SCT025

Decode

Destination Runways

ID Width Length Bearing (true) Bearing (mag) Surface Threshold Offset Overrun Length
05 151 ft / 46 m 8,721 ft / 2,658 m 46.34° 49.07° Asphalt 0 ft / 0 m 499 ft / 152 m
23 151 ft / 46 m 8,721 ft / 2,658 m 226.37° 229.10° Asphalt 1,004 ft / 306 m 0 ft / 0 m

Approach Navaids

Runway Type Ident Frequency Range Bearing (true) Bearing (mag) Slope Elevation
05 Localiser IUU 110.10 MHz 18 nm / 33 km 46.37° 49.10° - 26 ft / 8 m (AMSL)
05 Glidescope IUU 110.10 MHz 10 nm / 19 km 46.36° 49.09° 3.00° 52 ft / 16 m (AMSL)
05 DME IUU 110.10 MHz 18 nm / 33 km - - - 25 ft / 8 m (AMSL)
23 Localiser IOO 110.10 MHz 18 nm / 33 km 226.33° 229.06° - 26 ft / 8 m (AMSL)
23 Glidescope IOO 110.10 MHz 10 nm / 19 km 226.36° 229.09° 3.00° 50 ft / 15 m (AMSL)
23 DME IOO 110.10 MHz 18 nm / 33 km - - - 25 ft / 8 m (AMSL)

Popular Alternatives